AO-07 1 07530U 74089B 17180.53806609 -.00000032 00000-0 79755-4 0 9990 2 07530 101.6309 148.9796 0011697 300.0246 172.6247 12.53627505950177 UO-11 1 14781U 84021B 17180.58336319 .00000070 00000-0 14919-4 0 9996 2 14781 097.6962 225.8419 0009225 150.6204 209.5531 14.82905031771181 LO-19 1 20442U 90005G 17180.43426024 -.00000003 00000-0 14995-4 0 9994 2 20442 098.5759 116.8244 0012885 109.5390 250.7186 14.32862847433312 HUBBLE 1 20580U 90037B 17180.59071359 .00000418 00000-0 14742-4 0 9995 2 20580 028.4699 285.5613 0002613 311.0069 165.5069 15.08790330292075 MET-2/21 1 22782U 93055A 17180.60171816 .00000007 00000-0 -71661-5 0 9994 2 22782 082.5484 013.7338 0023239 038.9104 018.2122 13.83800620203140 AO-27 1 22825U 93061C 17180.43736283 .00000003 00000-0 18795-4 0 9998 2 22825 098.8128 146.1699 0007411 300.1993 059.8454 14.29999346238881 IO-26 1 22826U 93061D 17180.46560254 -.00000000 00000-0 17455-4 0 9995 2 22826 098.8071 146.2790 0007847 288.9522 071.0809 14.30328237239086 FO-29 1 24278U 96046B 17180.58619937 -.00000026 00000-0 12529-4 0 9995 2 24278 098.5621 062.1936 0349474 305.4062 051.4899 13.53076853030307 NOAA-15 1 25338U 98030A 17180.56592720 .00000050 00000-0 40047-4 0 9998 2 25338 098.7813 191.5014 0010862 164.6817 195.4693 14.25802266994500 GO-32 1 25397U 98043D 17180.42414820 -.00000007 00000-0 15844-4 0 9996 2 25397 098.6103 122.5033 0001193 022.0788 338.0442 14.23624082985314 ISS 1 25544U 98067A 17180.58371741 .00001411 00000-0 28596-4 0 9994 2 25544 051.6429 336.5350 0004700 340.4171 067.4343 15.54098532063687 NO-44 1 26931U 01043C 17180.62305859 -.00000044 00000-0 14953-4 0 9999 2 26931 067.0520 059.1111 0007685 263.7085 096.3141 14.30464868822053 SO-50 1 27607U 02058C 17180.13662138 -.00000007 00000-0 19426-4 0 9998 2 27607 064.5562 089.0469 0029646 090.4031 270.0469 14.75334798780747 CO-55 1 27844U 03031E 17180.59946794 .00000036 00000-0 36102-4 0 9997 2 27844 098.6889 189.4254 0008847 317.4005 042.6486 14.22044251726049 CO-57 1 27848U 03031J 17180.53222561 .00000028 00000-0 32858-4 0 9999 2 27848 098.6982 189.6233 0008930 327.8207 032.2424 14.21658180725922 RS-22 1 27939U 03042A 17180.59907216 .00000089 00000-0 24425-4 0 9993 2 27939 097.9410 324.9401 0012975 180.7103 271.2504 14.66574169734991 NOAA-18 1 28654U 05018A 17180.59381267 -.00000034 00000-0 66513-5 0 9991 2 28654 099.1815 203.1112 0015022 040.7441 319.4850 14.12340978623910 CO-58 1 28895U 05043F 17180.41262234 .00000111 00000-0 30121-4 0 9999 2 28895 097.8661 342.1413 0018317 104.0963 256.2277 14.63405079622271 Falconsat-3 1 30776U 07006E 17180.54331033 .00002132 00000-0 68326-4 0 9992 2 30776 035.4367 348.2296 0002357 067.0371 293.0603 15.32324184570152 CO-65 1 32785U 08021C 17180.48237284 .00000178 00000-0 25014-4 0 9993 2 32785 097.5658 204.1940 0014475 124.0316 236.2278 14.87896928496657 AAUSAT2 1 32788U 08021F 17180.55839947 .00000336 00000-0 36710-4 0 9999 2 32788 097.5579 216.0773 0013655 089.9003 270.3782 14.93885513497429 DO-64 1 32789U 08021G 17180.59179458 .00001029 00000-0 76840-4 0 9996 2 32789 097.5578 238.5618 0014141 063.3491 296.9181 15.04905428498636 CO-66 1 32791U 08021J 17180.06157728 .00000234 00000-0 29518-4 0 9994 2 32791 097.5626 208.1938 0015041 111.5194 248.7630 14.90233460496835 RS-30 1 32953U 08025A 17180.59744375 .00000013 00000-0 23340-4 0 9998 2 32953 082.5023 231.9362 0017678 256.6518 103.2590 12.43077562412961 PRISM 1 33493U 09002B 17180.47325511 .00000198 00000-0 23467-4 0 9992 2 33493 098.1672 063.4265 0016671 044.3634 315.8923 14.95683473457612 NOAA-19 1 33591U 09005A 17180.52619198 .00000063 00000-0 59552-4 0 9992 2 33591 099.0932 147.5271 0013037 235.4605 124.5335 14.12190615432137 TISAT-1 1 36799U 10035E 17180.56435126 .00000404 00000-0 47499-4 0 9997 2 36799 098.0633 303.5418 0011039 288.2033 071.7982 14.90404571377421 JUGNU 1 37839U 11058B 17179.95804413 .00000295 00000-0 15288-4 0 9998 2 37839 019.9628 019.1066 0018922 313.0706 198.0874 14.12586035295257 SRMSAT 1 37841U 11058D 17180.03505476 .00000297 00000-0 18056-4 0 9997 2 37841 019.9731 060.5631 0011956 210.7536 286.9004 14.10577410294860 AO-71 1 37854U 11061E 17180.62490521 .00001286 00000-0 76343-4 0 9996 2 37854 101.7013 060.5796 0167688 038.1900 323.1054 15.04119259308356 HRBE 1 37855U 11061F 17180.57691727 .00001420 00000-0 81868-4 0 9990 2 37855 101.7151 058.3041 0180912 044.9763 316.5940 15.03084125308188 ALMASAT-1 1 38078U 12006B 17180.50429772 .00007940 37259-5 95194-4 0 9991 2 38078 069.4400 099.1663 0311263 272.6258 083.9318 15.22415232286660 HORYU-2 1 38340U 12025D 17180.56641824 .00000177 00000-0 34242-4 0 9995 2 38340 098.3761 184.9238 0010327 250.7496 109.2595 14.75346663264700 RS-40 1 38735U 12041C 17180.60975640 .00000033 00000-0 17060-3 0 9991 2 38735 082.4768 316.4365 0016525 004.9102 355.2136 12.42574631223216 BEESAT-3 1 39134U 13015E 17180.40648594 .00000852 00000-0 51254-4 0 9993 2 39134 064.8639 187.0211 0036362 265.2227 094.4746 15.17826214230954 BEESAT-2 1 39136U 13015G 17180.45338374 .00000811 00000-0 53042-4 0 9994 2 39136 064.8685 197.7286 0033265 280.7797 078.9583 15.15107007230743 ZACUBE-1 1 39417U 13066B 17180.59423899 .00000180 00000-0 29423-4 0 9999 2 39417 097.6285 222.2358 0058158 228.3835 131.2388 14.80715402194614 TRITON-1 1 39427U 13066M 17180.59996198 .00000167 00000-0 35062-4 0 9998 2 39427 097.6371 195.1244 0113124 309.5491 049.5761 14.67464801192677 GOMX-1 1 39430U 13066Q 17180.51776772 .00000194 00000-0 44323-4 0 9998 2 39430 097.6649 178.6130 0152063 004.7300 355.5297 14.58875051191549 LO-74 1 39440U 13066AA 17180.58741863 .00000167 00000-0 30729-4 0 9994 2 39440 097.6278 211.3085 0079217 259.9798 099.2467 14.75456670192729 AO-73 1 39444U 13066AE 17180.56777424 .00000249 00000-0 37506-4 0 9999 2 39444 097.6301 223.2801 0057412 225.0902 134.5645 14.81449566192850 SPROUT 1 39770U 14029E 17180.55154225 .00000624 00000-0 77193-4 0 9991 2 39770 097.8737 279.7999 0007700 291.1799 068.8590 14.86249172167973 DUCHIFAT-1 1 40021U 14033M 17180.58881586 .00000327 00000-0 39974-4 0 9992 2 40021 097.9181 093.7727 0011579 260.2115 099.7795 14.89898540164440 NANOSATCBR1 1 40024U 14033Q 17180.32774797 .00000246 00000-0 32011-4 0 9997 2 40024 097.9141 092.3799 0010843 262.3624 097.6362 14.89222688163837 EO-79 1 40025U 14033R 17180.58265201 .00000223 00000-0 30059-4 0 9996 2 40025 097.9121 091.6584 0011083 264.5782 095.4170 14.88425564163825 DTUSAT-2 1 40030U 14033W 17180.25479186 .00000202 00000-0 28114-4 0 9991 2 40030 097.9088 090.4323 0010489 259.4503 100.5532 14.88048506163731 EO-80 1 40032U 14033Y 17180.56652416 .00000228 00000-0 30910-4 0 9991 2 40032 097.9094 090.7493 0010490 258.9114 101.0923 14.87983575163761 ANTELSAT 1 40034U 14033AA 17180.57311071 .00000163 00000-0 32112-4 0 9997 2 40034 097.8578 064.1211 0057585 252.8357 106.6542 14.73703208162215 VELOX-1 1 40057U 14034E 17180.42344914 .00000280 00000-0 47261-4 0 9990 2 40057 098.1903 280.8244 0011644 025.8242 334.3545 14.77130004161568 DAURIA DX 1 1 40071U 14037C 17180.56274254 .00000099 00000-0 20211-4 0 9997 2 40071 098.3396 292.1222 0009098 021.5568 338.6027 14.81020890160802 UKUBE-1 1 40074U 14037F 17180.43367015 .00000258 00000-0 38485-4 0 9993 2 40074 098.3483 295.9001 0005132 026.3494 333.7982 14.83506944160991 HODOYOSHI-1 1 40299U 14070B 17180.55189546 .00000730 00000-0 34659-4 0 9997 2 40299 097.4031 263.1042 0014816 052.7143 054.9186 15.22273552146828 CHUBUSAT-1 1 40300U 14070C 17180.52588145 .00000860 00000-0 41827-4 0 9994 2 40300 097.3954 260.1950 0022219 060.4771 034.9385 15.20876287146661 QSAT-EOS 1 40301U 14070D 17180.55148082 .00001796 00000-0 78009-4 0 9991 2 40301 097.3891 260.3050 0029230 055.5415 052.3577 15.23231811146719 FIREBIRD FU3 1 40377U 15003B 17180.48955539 .00001117 00000-0 51883-4 0 9994 2 40377 099.1229 006.9001 0135484 322.0220 037.1511 15.15395310132868 FIREBIRD FU4 1 40378U 15003C 17180.54763331 .00001153 00000-0 53308-4 0 9993 2 40378 099.1231 007.0080 0135675 321.7334 037.4323 15.15417360132870 GRIFEX 1 40379U 15003D 17180.55222237 .00000831 00000-0 41997-4 0 9993 2 40379 099.1251 004.7410 0141620 329.4481 029.8550 15.12970061132741 NO-84 1 40654U 15025D 17180.30217267 .00004741 00000-0 95747-4 0 00103 2 40654 054.9961 182.4797 0177451 296.6860 061.6084 15.33569377001572 NO-83 1 40655U 15025E 17180.38280874 .00012929 00000-0 19984-3 0 00112 2 40655 054.9796 156.9077 0145736 311.8560 047.0098 15.43292535001566 DEORBITSAIL 1 40719U 15032E 17180.59485728 .00000375 00000-0 61622-4 0 9993 2 40719 097.9792 074.1970 0017969 101.6758 258.6469 14.76067027106157 NUDT-PHONESAT 1 40900U 15049B 17180.55307198 .00001743 00000-0 85305-4 0 9997 2 40900 097.4426 188.2998 0014078 175.2129 184.9243 15.19433528098334 XW-2A 1 40903U 15049E 17180.60700374 .00001582 00000-0 43385-4 0 9992 2 40903 097.4205 206.4635 0013800 215.4086 144.6244 15.38777283099553 XW-2C 1 40906U 15049H 17180.59568345 .00000565 00000-0 34135-4 0 9996 2 40906 097.4544 185.8379 0015606 165.5861 194.5820 15.14546981098117 XW-2D 1 40907U 15049J 17180.57824037 .00000618 00000-0 36904-4 0 9993 2 40907 097.4514 185.5801 0015029 163.5185 196.6539 15.14651459098115 LILACSAT-2 1 40908U 15049K 17180.58771057 .00000286 00000-0 19754-4 0 9993 2 40908 097.4617 185.3541 0016622 162.5646 197.6159 15.13125174098040 XW-2F 1 40910U 15049M 17180.57330573 .00000913 00000-0 51501-4 0 9992 2 40910 097.4534 186.2784 0015928 161.4963 198.6852 15.15536816098152 XW-2B 1 40911U 15049N 17180.58464174 .00000603 00000-0 36122-4 0 9997 2 40911 097.4557 185.9687 0014927 163.8384 196.3327 15.14613366098019 DCBB 1 40912U 15049P 17180.49408902 .00001359 00000-0 70673-4 0 9993 2 40912 097.4498 188.0755 0016127 153.8155 358.1969 15.17639369098152 TW-1C 1 40926U 15051B 17180.59735157 .00006452 00000-0 14867-3 0 9998 2 40926 097.2285 220.0622 0013431 119.8257 031.0843 15.42845016098838 TW-1A 1 40928U 15051D 17180.39388029 .00003126 00000-0 90709-4 0 9995 2 40928 097.2254 215.9904 0013602 147.4948 272.1952 15.36173694098575 IO-86 1 40931U 15052B 17180.47050780 .00000697 00000-0 81366-5 0 9999 2 40931 005.9976 145.1318 0013155 055.6601 304.4763 14.76531989094784 GomX-3 1 40949U 98067HA 16292.18357804 .08527750 12374-4 77882-3 0 9992 2 40949 51.6055 106.7696 0006699 286.1344 73.8944 16.38002265 59645 LQSat 1 40958U 15057A 17180.54355098 .00000033 00000-0 13005-4 0 9999 2 40958 097.9779 255.6470 0019202 029.9796 330.2508 14.72970133092943 AO-85 1 40967U 15058D 17180.30215652 .00000077 00000-0 28415-4 0 00108 2 40967 064.7744 182.1296 0172322 073.4607 288.5348 14.75434096001588 ATHENOXAT-1 1 41168U 15077C 17180.49210372 .00001857 00000-0 67467-4 0 9990 2 41168 014.9860 079.5351 0012318 185.6899 346.5985 15.11605876084902 ChubuSat-2 1 41338U 16012B 17179.93299155 .00000317 00000-0 18123-4 0 9997 2 41338 031.0044 037.6611 0013955 176.6366 183.4365 14.99749099074759 ChubuSat-3 1 41339U 16012C 17180.59160539 .00000332 00000-0 19208-4 0 9997 2 41339 031.0122 032.6031 0013562 189.3060 170.7324 14.99954437074831 Horyu-4 1 41340U 16012D 17180.62638767 .00000450 00000-0 27952-4 0 9992 2 41340 031.0064 029.7897 0014303 198.6341 161.3772 15.00607482074880 OUFTI-1 1 41458U 16025C 17180.62569889 .00000782 00000-0 46676-4 0 9996 2 41458 098.1855 218.9196 0172483 247.7804 110.5044 15.03205668064453 e-st@r-II 1 41459U 16025D 17180.58142910 .00001806 00000-0 10120-3 0 9996 2 41459 098.1837 218.8148 0173704 248.0856 110.1822 15.03048461064432 AAUSAT4 1 41460U 16025E 17180.50500091 .00001783 00000-0 10000-3 0 9999 2 41460 098.1775 218.8467 0166468 246.8649 111.4953 15.03944085064441 MinXSS 1 41474U 98067HU 17125.52237589 .05724416 12300-4 86147-3 0 9995 2 41474 051.6449 208.6967 0008167 329.0747 030.9230 16.33400422055623 CADRE 1 41475U 98067HV 17003.74787607 .12518598 12537-4 55989-3 0 9998 2 41475 51.6110 110.0165 0004040 312.3134 47.7551 16.43344525 36494 NODES 1 1 41477U 98067HX 17180.57338017 .00055767 00000-0 24511-3 0 9990 2 41477 051.6273 298.7442 0001223 294.4895 065.5981 15.84010658064039 NODES 2 1 41478U 98067HY 17180.55673252 .00054331 00000-0 24619-3 0 9997 2 41478 051.6310 299.4174 0001370 300.6559 059.4308 15.83376017064029 LO-87 1 41557U 16033B 17180.20186342 .00001127 00000-0 45194-4 0 9996 2 41557 097.4630 259.7190 0013349 331.2552 028.7950 15.27077229060264 NuSat2 1 41558U 16033C 17180.17033250 .00001148 00000-0 46167-4 0 9996 2 41558 097.4656 259.7429 0012791 330.2827 029.7684 15.26946608060251 Lapan A3 1 41603U 16040E 17180.56033222 .00000365 00000-0 20499-4 0 9997 2 41603 097.4596 242.3960 0014770 036.1350 071.6063 15.19359066056536 Swayam 1 41607U 16040J 17180.17092558 .00001413 00000-0 67062-4 0 9997 2 41607 097.4598 242.3316 0015392 040.4262 319.8114 15.20817507056421 Pratham 1 41783U 16059A 17180.60991228 .00000037 00000-0 16621-4 0 9998 2 41783 098.1661 241.8554 0034878 120.8955 239.5684 14.62841194040411 AlSat 1N 1 41789U 16059G 17180.45149141 .00000100 00000-0 28249-4 0 9996 2 41789 098.1668 242.2231 0029527 115.1202 245.3071 14.64053260040403 ScatSat 1 41790U 16059H 17180.61468021 -.00000016 00000-0 66884-5 0 9992 2 41790 098.0639 230.1378 0012556 107.0192 253.2380 14.50111929040067 TY-1 1 41844U 16066D 17180.58332777 .00000882 00000-0 41502-4 0 9993 2 41844 097.4044 187.5504 0015505 189.1598 319.7485 15.22063716035220 CAS-2T 1 41845U 16066E 17180.50462851 .00000033 00000-0 16108-4 0 9995 2 41845 098.7751 196.4326 0366133 211.5444 146.3332 14.37759374033261 Pegasus-1 1 41846U 16066F 17180.56498078 .00000309 00000-0 58406-4 0 9995 2 41846 098.7804 196.2713 0368621 212.6900 145.0983 14.37025947033251 STARS-C 1 41895U 98067KR 17180.62471934 .00018363 00000-0 21051-3 0 9993 2 41895 051.6390 330.9179 0004260 358.1009 001.9968 15.62144314029930 Tancredo 1 1 41931U 98067KT 17180.59217832 .00037988 00000-0 33115-3 0 9993 2 41931 051.6374 327.6749 0006348 313.1017 046.9448 15.68586442025541 TO-89 1 41932U 98067KU 17180.57631091 .00009344 00000-0 12176-3 0 9998 2 41932 051.6416 332.8635 0005223 316.1289 043.9288 15.59491265025475 AOBA-V3LOX3 1 41935U 98067KX 17180.56414044 .00010603 00000-0 13557-3 0 9991 2 41935 051.6413 332.7786 0004729 319.9480 040.1164 15.59829833025574 OSNSAT 1 41939U 98067KZ 17180.46671256 .00019019 00000-0 20163-3 0 9995 2 41939 051.6388 330.6064 0006296 315.9457 044.1036 15.64119804024854 EO-88 1 42017U 17008BX 17180.58944369 .00001390 00000-0 62126-4 0 9999 2 42017 097.4945 242.0220 0007000 164.0563 196.0895 15.23008602020375 SOMP2 1 42700U 98067LH 17180.59839800 .00009139 00000-0 13569-3 0 9991 2 42700 051.6406 335.9934 0006528 011.3988 348.7150 15.55981605006878 HAVELSAT 1 42701U 98067LJ 17180.47128417 .00007659 00000-0 11533-3 0 9998 2 42701 051.6412 336.6454 0006487 011.8849 348.2295 15.55870210006847 Columbia 1 42702U 98067LK 17180.45899105 .00016287 00000-0 22904-3 0 9997 2 42702 051.6406 336.5628 0006683 000.7999 359.3002 15.56810069006772 PHOENIX 1 42706U 98067LP 17180.59943796 .00008693 00000-0 12962-3 0 9997 2 42706 051.6412 336.0029 0001603 353.0748 007.0221 15.55944797006782 X-CubeSat 1 42707U 98067LQ 17180.59995074 .00008997 00000-0 13403-3 0 9992 2 42707 051.6411 336.0051 0001652 350.2710 009.8249 15.55918855006774 qbee 1 42708U 98067LR 17180.60082139 .00008539 00000-0 12775-3 0 9997 2 42708 051.6410 336.0108 0001740 350.6371 009.4588 15.55878934006733 ZA-AeroSat 1 42713U 98067LU 17180.60670679 .00007038 00000-0 10754-3 0 9993 2 42713 051.6410 336.0498 0002251 306.4893 053.5891 15.55618388006447 LINK 1 42714U 98067LV 17180.60649829 .00008316 00000-0 12548-3 0 9990 2 42714 051.6406 336.0479 0002603 310.8213 049.2552 15.55684785006550 UPSat 1 42716U 98067LX 17180.60150775 .00009865 00000-0 14610-3 0 9991 2 42716 051.6410 336.0151 0004837 013.6351 346.4770 15.55948882006573 SpaceCube 1 42717U 98067LY 17180.60432567 .00008683 00000-0 13030-3 0 9996 2 42717 051.6411 336.0339 0004813 014.2182 345.8944 15.55768766005819 Hoopoe 1 42718U 98067LZ 17180.60328393 .00008990 00000-0 13427-3 0 9999 2 42718 051.6411 336.0271 0004836 012.6410 347.4702 15.55847384005810 Challenger 1 42721U 98067MA 17180.61160113 .00011289 00000-0 16711-3 0 9992 2 42721 051.6408 336.0810 0008055 352.0027 008.0834 15.55775068005513 NJUST-1 1 42722U 98067MB 17180.61658769 .00007174 00000-0 11050-3 0 9991 2 42722 051.6410 336.1146 0007810 355.2096 004.8820 15.55350902005514 UNSW-EC0 1 42723U 98067MC 17180.61494307 .00009081 00000-0 13712-3 0 9994 2 42723 051.6410 336.1038 0007798 353.3886 006.7001 15.55519551005492 DUTHsat 1 42724U 98067MD 17180.61406441 .00011431 00000-0 16992-3 0 9992 2 42724 051.6408 336.0978 0006992 354.9224 005.1695 15.55654102005438 LO-90 1 42725U 98067ME 17180.61812593 .00008038 00000-0 12325-3 0 9997 2 42725 051.6411 336.1251 0006804 357.9135 002.1826 15.55287719005433 nSIGHT1 1 42726U 98067MF 17180.62059148 .00004372 00000-0 70869-4 0 9993 2 42726 051.6414 336.1417 0006712 000.6729 359.4270 15.55064075005428 QBITO 1 42728U 98067MH 17180.61543855 .00008981 00000-0 13592-3 0 9996 2 42728 051.6412 336.1079 0003968 005.0993 355.0038 15.55486776005222 Aalto-2 1 42729U 98067MJ 17180.61531731 .00008720 00000-0 13216-3 0 9991 2 42729 051.6410 336.1069 0003959 005.1873 354.9159 15.55489416005235 SUSat 1 42730U 98067MK 17180.61608178 .00008836 00000-0 13396-3 0 9990 2 42730 051.6409 336.1121 0004040 003.6545 356.4475 15.55461441005231 i-INSPIRE II 1 42731U 98067ML 17180.61450342 .00009862 00000-0 14801-3 0 9991 2 42731 051.6401 336.0988 0007626 304.8707 055.1567 15.55571899005271 PolyITAN-2-SAU 1 42732U 98067MM 17180.61464780 .00008465 00000-0 12828-3 0 9998 2 42732 051.6403 336.0997 0007588 304.1079 055.9191 15.55524629005276 SNUSAT-1 1 42733U 98067MN 17180.61617139 .00008566 00000-0 13018-3 0 9991 2 42733 051.6404 336.1099 0007413 305.7641 054.2661 15.55428451005271 ExAlta-1 1 42734U 98067MP 17180.61456570 .00009408 00000-0 14152-3 0 9998 2 42734 051.6406 336.0998 0009357 328.7905 031.2529 15.55559890005223 Aoxiang-1 1 42735U 98067MQ 17180.61631529 .00007258 00000-0 11152-3 0 9996 2 42735 051.6409 336.1123 0008446 351.5137 008.5710 15.55394477006641 BeEagleSat 1 42736U 98067MR 17180.61674419 .00007918 00000-0 12099-3 0 9996 2 42736 051.6409 336.1154 0008367 350.5034 009.5798 15.55398640005331 Atlantis 1 42737U 98067MS 17180.60940271 .00015713 00000-0 22713-3 0 9994 2 42737 051.6405 336.0659 0008645 344.7256 015.3473 15.56079018005226 CAS-4B 1 42759U 17034B 17180.56386502 .00000131 00000-0 21773-4 0 9993 2 42759 043.0188 218.5655 0006775 058.6884 070.8154 15.08904492002176 CAS-4A 1 42761U 17034D 17180.56905791 .00000175 00000-0 24498-4 0 9998 2 42761 043.0187 218.5248 0007242 058.9273 102.6196 15.08977985002167 Object A 1 42765U 17036A 17177.89321959 -.00000316 00000-0 -11623-4 0 9999 2 42765 097.4488 237.6079 0015225 220.6422 139.3678 15.19414870000550 Object B 1 42766U 17036B 17180.59335062 .00000888 00000-0 45093-4 0 9991 2 42766 097.4496 240.2719 0015499 211.1018 148.9301 15.19418849000975 Object C 1 42767U 17036C 17180.59874871 .00000509 00000-0 28390-4 0 9999 2 42767 097.4487 240.2638 0012523 188.9384 171.1629 15.17889460000978 Object D 1 42768U 17036D 17180.59300012 .00001894 00000-0 92210-4 0 9991 2 42768 097.4491 240.2717 0015510 214.6537 145.3688 15.19507586000985 Object E 1 42769U 17036E 17180.59266592 .00000379 00000-0 21009-4 0 9991 2 42769 097.4495 240.2726 0014929 212.8709 147.1599 15.19577516000907 Object F 1 42770U 17036F 17180.52462769 .00093328 00000-0 41869-2 0 9990 2 42770 097.4489 240.2095 0016350 220.5445 139.4574 15.20684974000900 Object G 1 42771U 17036G 17180.59227628 .00001241 00000-0 61281-4 0 9996 2 42771 097.4494 240.2731 0014572 213.3204 146.7115 15.19675765000921 Object H 1 42772U 17036H 17180.59203117 .00001162 00000-0 57486-4 0 9998 2 42772 097.4493 240.2733 0014309 212.5528 147.4826 15.19733693000923 Object J 1 42773U 17036J 17180.59182912 .00001206 00000-0 59455-4 0 9995 2 42773 097.4494 240.2737 0014107 212.7275 147.3087 15.19782029000921 Object K 1 42774U 17036K 17180.59170886 .00000988 00000-0 49247-4 0 9997 2 42774 097.4496 240.2742 0013986 212.6857 147.3514 15.19809048000914 Object L 1 42775U 17036L 17180.59121904 .00000738 00000-0 37489-4 0 9993 2 42775 097.4495 240.2748 0013604 211.7956 148.2459 15.19924094000925 Object M 1 42776U 17036M 17180.59106292 .00000676 00000-0 34580-4 0 9997 2 42776 097.4497 240.2754 0013476 211.9951 148.0468 15.19960767000924 Object N 1 42777U 17036N 17180.59006637 .00001262 00000-0 61381-4 0 9991 2 42777 097.4504 240.2781 0012490 216.3151 143.7237 15.20200866000914 Object P 1 42778U 17036P 17180.52368133 .00000834 00000-0 41509-4 0 9991 2 42778 097.4511 240.2151 0011909 217.6940 142.3462 15.20332376000904 Object Q 1 42779U 17036Q 17180.52344323 .00001231 00000-0 59598-4 0 9996 2 42779 097.4497 240.2127 0011870 223.5834 136.4464 15.20391216000898 Object R 1 42780U 17036R 17180.52331034 .00001293 00000-0 62412-4 0 9990 2 42780 097.4495 240.2125 0011746 223.5073 136.5237 15.20423456000906 Object S 1 42781U 17036S 17180.58906583 .00001212 00000-0 58687-4 0 9994 2 42781 097.4494 240.2774 0011704 223.3072 136.7244 15.20436828000904 Object T 1 42782U 17036T 17180.58894722 .00001166 00000-0 56532-4 0 9991 2 42782 097.4496 240.2779 0011565 223.1657 136.8673 15.20464800000902 Object U 1 42783U 17036U 17180.52293192 .00000858 00000-0 42379-4 0 9991 2 42783 097.4494 240.2128 0011557 225.6803 134.3486 15.20511126000909 Object V 1 42784U 17036V 17180.58864404 .00000991 00000-0 48424-4 0 9993 2 42784 097.4496 240.2783 0011491 225.6508 134.3786 15.20535334000919 Object W 1 42785U 17036W 17180.58858185 .00000784 00000-0 38968-4 0 9995 2 42785 097.4496 240.2784 0011434 225.4571 134.5732 15.20548785000980 Object X 1 42786U 17036X 17180.58838241 .00000860 00000-0 42372-4 0 9996 2 42786 097.4495 240.2786 0011233 225.7474 134.2840 15.20596580000987 Object Y 1 42787U 17036Y 17180.58830141 .00001459 00000-0 69623-4 0 9991 2 42787 097.4494 240.2784 0011157 225.6657 134.3665 15.20620091000758 Object Z 1 42788U 17036Z 17180.52249390 .00001209 00000-0 58258-4 0 9991 2 42788 097.4495 240.2134 0011143 225.9385 134.0933 15.20618714000973 Object AA 1 42789U 17036AA 17180.52230991 .00001163 00000-0 56094-4 0 9994 2 42789 097.4494 240.2136 0010955 225.8777 134.1558 15.20662689000894 Object AB 1 42790U 17036AB 17180.58784257 .00001346 00000-0 64301-4 0 9994 2 42790 097.4491 240.2785 0010694 225.9128 134.1228 15.20728431000908 Object AC 1 42791U 17036AC 17180.58765423 .00001055 00000-0 51003-4 0 9991 2 42791 097.4493 240.2791 0010537 226.4405 133.5956 15.20771281000898 Object AD 1 42792U 17036AD 17180.58760844 .00001192 00000-0 57200-4 0 9991 2 42792 097.4491 240.2788 0010498 226.8461 133.1898 15.20782984000911 Object AE 1 42793U 17036AE 17180.58669941 .00000819 00000-0 40043-4 0 9990 2 42793 097.4491 240.2799 0009525 227.3876 132.6557 15.20997104000984 Object AF 1 42794U 17036AF 17180.52058221 .00000651 00000-0 32403-4 0 9993 2 42794 097.4489 240.2150 0008732 223.9343 136.1199 15.21075654000892 Object AG 1 42795U 17036AG 17180.58617175 .00001224 00000-0 58099-4 0 9995 2 42795 097.4485 240.2797 0008628 224.5160 135.5384 15.21126528000902 Object AH 1 42796U 17036AH 17180.39070916 .00001088 00000-0 52647-4 0 9992 2 42796 097.4494 240.0835 0010945 226.2994 133.7335 15.20660617000887 /EX
